www.pogodaiklimat.ru

Погода и климат >> Архив погоды >> Австралия >> Западная Австралия >> Остров Брауз


ПОГОДА на Острове Брауз

  • Прогноз погоды на Острове Брауз
  • Монитор погоды на Острове Брауз

АРХИВ ПОГОДЫ на Острове Брауз

Время (UTC), дата Ветер
(напр.,м/с)
 
Видим.   Явления Облачность Т
(С)
Тd
(С)
f
(%)
Тe
(С)
Тes
(С)
Комфортность P
(гПа)
Po
(гПа)
Тmin
(С)
Tmax
(С)
R
(мм)
R24
(мм)
S
(см)
19 14.04 штиль 0 н/о н/о +28.4 +23 +23 комфорт 1011.1 1010.6
21 14.04 Ю 3 н/о н/о +28.5 +24 +24 комфорт 1011.6 1011.1
22 14.04 Ю 3 н/о н/о +28.7 +24 +24 комфорт 1012.4 1011.9
00 15.04 ЮВ 2 н/о н/о +29.1 +24 +24 комфорт 1013.4 1012.9
01 15.04 штиль 0 н/о н/о +29.8 +25 +25 комфорт 1013.8 1013.3 +28.0
03 15.04 ЮВ 3 н/о н/о +29.7 +25 +25 комфорт 1012.7 1012.2
04 15.04 Ю 2 н/о н/о +29.8 +25 +25 комфорт 1011.7 1011.2
06 15.04 Ю 1 н/о н/о +29.8 +25 +25 комфорт 1010.3 1009.8
07 15.04 Ю 2 н/о н/о +29.8 +25 +25 комфорт 1010.1 1009.6
09 15.04 штиль 0 н/о н/о +29.2 +24 +24 комфорт 1010.4 1009.9
10 15.04 ЮЗ 2 н/о н/о +29.1 +24 +24 комфорт 1011.0 1010.5
12 15.04 ЮЗ 4 н/о н/о +29.3 +24 +24 комфорт 1012.7 1012.2
13 15.04 ЮЗ 4 н/о н/о +29.3 +24 +24 комфорт 1013.1 1012.6 +31.3
15 15.04 З 2 н/о н/о +29.2 +24 +24 комфорт 1012.5 1012.0
16 15.04 ЮЗ 3 н/о н/о +29.0 +24 +24 комфорт 1012.1 1011.6
18 15.04 штиль 0 н/о н/о +28.7 +24 +24 комфорт 1011.1 1010.6
19 15.04 штиль 0 н/о н/о +28.7 +24 +24 комфорт 1011.0 1010.5
21 15.04 Ю 3 н/о н/о +28.8 +24 +24 комфорт 1011.5 1011.0
22 15.04 Ю 3 н/о н/о +28.8 +24 +24 комфорт 1012.0 1011.5
00 16.04 Ю 3 н/о н/о +29.3 +24 +24 комфорт 1013.3 1012.8
01 16.04 Ю 2 н/о н/о +29.3 +24 +24 комфорт 1013.7 1013.2 +28.7
03 16.04 Ю 2 н/о н/о +30.2 +25 +25 комфорт 1013.1 1012.6
04 16.04 Ю 3 н/о н/о +30.2 +25 +25 комфорт 1012.2 1011.7
06 16.04 Ю 3 н/о н/о +29.7 +25 +25 комфорт 1011.1 1010.6
07 16.04 Ю 4 н/о н/о +29.9 +25 +25 комфорт 1010.7 1010.2
09 16.04 ЮЗ 4 н/о н/о +29.7 +25 +25 комфорт 1011.2 1010.7
10 16.04 ЮЗ 3 н/о н/о +29.7 +25 +25 комфорт 1011.8 1011.3
12 16.04 ЮЗ 3 н/о н/о +29.5 +24 +24 комфорт 1012.8 1012.3
13 16.04 ЮЗ 3 н/о н/о +29.3 +24 +24 комфорт 1013.3 1012.8 +30.7
15 16.04 З 3 н/о н/о +29.1 +24 +24 комфорт 1012.9 1012.4
16 16.04 З 4 н/о н/о +29.0 +24 +24 комфорт 1012.5 1012.0
18 16.04 З 4 н/о н/о +28.9 +24 +24 комфорт 1011.3 1010.8
19 16.04 З 3 н/о н/о +28.7 +24 +24 комфорт 1011.6 1011.1
21 16.04 З 3 н/о н/о +28.6 +24 +24 комфорт 1011.7 1011.2
22 16.04 З 3 н/о н/о +28.7 +24 +24 комфорт 1012.4 1011.9
00 17.04 ЮЗ 3 н/о н/о +29.1 +24 +24 комфорт 1013.5 1013.0
01 17.04 ЮЗ 4 н/о н/о +29.1 +24 +24 комфорт 1013.8 1013.3 +28.6
03 17.04 Ю 3 н/о н/о +29.4 +24 +24 комфорт 1013.3 1012.8
04 17.04 Ю 3 н/о н/о +29.5 +24 +24 комфорт 1012.5 1012.0
06 17.04 ЮЗ 4 н/о н/о +29.2 +24 +24 комфорт 1011.0 1010.5
07 17.04 ЮЗ 4 н/о н/о +29.4 +24 +24 комфорт 1010.3 1009.8
09 17.04 ЮЗ 3 н/о н/о +29.6 +25 +25 комфорт 1011.0 1010.5
10 17.04 З 4 н/о н/о +29.2 +24 +24 комфорт 1011.7 1011.2
12 17.04 ЮЗ 4 н/о н/о +29.2 +24 +24 комфорт 1013.1 1012.6
13 17.04 ЮЗ 4 н/о н/о +29.2 +24 +24 комфорт 1013.3 1012.8 +30.2
15 17.04 ЮЗ 4 н/о н/о +29.0 +24 +24 комфорт 1012.7 1012.2
16 17.04 ЮЗ 4 н/о н/о +28.9 +24 +24 комфорт 1012.3 1011.8
18 17.04 З 3 н/о н/о +28.6 +24 +24 комфорт 1011.1 1010.6
19 17.04 З 4 н/о н/о +28.7 +24 +24 комфорт 1010.9 1010.4
21 17.04 ЮЗ 3 н/о н/о +28.5 +24 +24 комфорт 1011.3 1010.8
22 17.04 ЮЗ 2 н/о н/о +28.4 +23 +23 комфорт 1012.0 1011.5
00 18.04 штиль 0 н/о н/о +29.1 +24 +24 комфорт 1013.3 1012.8
01 18.04 штиль 0 н/о н/о +29.1 +24 +24 комфорт 1013.7 1013.2 +28.3
03 18.04 ЮЗ 2 н/о н/о +29.5 +24 +24 комфорт 1013.0 1012.5
04 18.04 ЮЗ 2 н/о н/о +29.5 +24 +24 комфорт 1012.0 1011.5
06 18.04 штиль 0 н/о н/о +30.1 +25 +25 комфорт 1010.9 1010.4
07 18.04 штиль 0 н/о н/о +29.8 +25 +25 комфорт 1010.4 1009.9
09 18.04 штиль 0 н/о н/о +29.6 +25 +25 комфорт 1010.7 1010.2
10 18.04 штиль 0 н/о н/о +29.2 +24 +24 комфорт 1011.3 1010.8
12 18.04 З 2 н/о н/о +29.2 +24 +24 комфорт 1012.4 1011.9
13 18.04 З 3 н/о н/о +29.3 +24 +24 комфорт 1012.5 1012.0 +30.8
15 18.04 З 2 н/о н/о +29.1 +24 +24 комфорт 1012.0 1011.5
16 18.04 З 2 н/о н/о +29.1 +24 +24 комфорт 1012.0 1011.5
18 18.04 С 3 н/о н/о +29.0 +24 +24 комфорт 1011.3 1010.8
19 18.04 С 3 н/о н/о +28.9 +24 +24 комфорт 1011.2 1010.7
21 18.04 С 1 н/о н/о +28.7 +24 +24 комфорт 1011.5 1011.0
22 18.04 штиль 0 н/о н/о +28.7 +24 +24 комфорт 1012.0 1011.5
00 19.04 штиль 0 н/о н/о +29.3 +24 +24 комфорт 1013.2 1012.7
01 19.04 ЮЗ 1 н/о н/о +29.5 +24 +24 комфорт 1013.3 1012.8 +28.5
03 19.04 штиль 0 н/о н/о +30.0 +25 +25 комфорт 1012.2 1011.7
04 19.04 штиль 0 н/о н/о +29.7 +25 +25 комфорт 1011.2 1010.7
06 19.04 штиль 0 н/о н/о +30.7 +26 +26 жарко 1009.7 1009.2
07 19.04 Ю 2 н/о н/о +29.7 +25 +25 комфорт 1009.1 1008.6
09 19.04 штиль 0 н/о н/о +29.8 +25 +25 комфорт 1009.3 1008.8
10 19.04 штиль 0 н/о н/о +29.1 +24 +24 комфорт 1009.6 1009.1
12 19.04 штиль 0 н/о н/о +29.1 +24 +24 комфорт 1011.1 1010.6
13 19.04 штиль 0 н/о н/о +29.2 +24 +24 комфорт 1011.3 1010.8 +31.3
15 19.04 штиль 0 н/о н/о +29.1 +24 +24 комфорт 1011.8 1011.3
16 19.04 З 1 н/о н/о +29.1 +24 +24 комфорт 1011.3 1010.8
18 19.04 ЮЗ 2 н/о н/о +28.8 +24 +24 комфорт 1010.8 1010.3
19 19.04 СЗ 2 н/о н/о +28.9 +24 +24 комфорт 1010.6 1010.1
21 19.04 ЮЗ 3 н/о н/о +28.7 +24 +24 комфорт 1011.0 1010.5
22 19.04 ЮЗ 3 н/о н/о +28.8 +24 +24 комфорт 1011.8 1011.3
00 20.04 ЮЗ 3 н/о н/о +29.1 +24 +24 комфорт 1012.5 1012.0
01 20.04 Ю 3 н/о н/о +29.2 +24 +24 комфорт 1012.8 1012.3 +28.5
03 20.04 ЮВ 4 н/о н/о +29.4 +24 +24 комфорт 1011.9 1011.4
04 20.04 ЮВ 5 н/о н/о +29.5 +24 +24 комфорт 1010.9 1010.4
06 20.04 ЮВ 5 н/о н/о +29.6 +25 +25 комфорт 1009.4 1008.9
07 20.04 ЮВ 3 н/о н/о +29.8 +25 +25 комфорт 1008.9 1008.4
09 20.04 Ю 5 н/о н/о +29.1 +24 +24 комфорт 1009.3 1008.8
10 20.04 Ю 5 н/о н/о +29.2 +24 +24 комфорт 1009.8 1009.3
12 20.04 Ю 3 н/о н/о +29.0 +24 +24 комфорт 1010.6 1010.1
13 20.04 Ю 4 н/о н/о +29.1 +24 +24 комфорт 1011.0 1010.5 +30.4
15 20.04 Ю 4 н/о н/о +29.1 +24 +24 комфорт 1011.2 1010.7
16 20.04 Ю 2 н/о н/о +28.9 +24 +24 комфорт 1010.9 1010.4
18 20.04 штиль 0 н/о н/о +28.6 +24 +24 комфорт 1010.1 1009.6
19 20.04 Ю 2 н/о н/о +28.6 +24 +24 комфорт 1009.9 1009.4
21 20.04 ЮЗ 1 н/о н/о +28.6 +24 +24 комфорт 1010.2 1009.7
22 20.04 Ю 2 н/о н/о +28.7 +24 +24 комфорт 1010.7 1010.2
00 21.04 Ю 3 н/о н/о +29.1 +24 +24 комфорт 1012.0 1011.5
01 21.04 Ю 4 н/о н/о +29.5 +24 +24 комфорт 1012.3 1011.8 +28.6
03 21.04 Ю 5 н/о н/о +29.3 +24 +24 комфорт 1011.3 1010.8
04 21.04 Ю 5 н/о н/о +29.6 +25 +25 комфорт 1010.4 1009.9
06 21.04 Ю 3 н/о н/о +29.6 +25 +25 комфорт 1009.2 1008.7
07 21.04 Ю 3 н/о н/о +29.7 +25 +25 комфорт 1008.8 1008.3
09 21.04 Ю 3 н/о н/о +29.6 +25 +25 комфорт 1009.2 1008.7
10 21.04 Ю 2 н/о н/о +29.5 +24 +24 комфорт 1009.4 1008.9
12 21.04 штиль 0 н/о н/о +28.9 +24 +24 комфорт 1010.8 1010.3
13 21.04 штиль 0 н/о н/о +29.0 +24 +24 комфорт 1011.0 1010.5 +30.2
15 21.04 З 2 н/о н/о +29.1 +24 +24 комфорт 1010.7 1010.2
16 21.04 З 1 н/о н/о +29.0 +24 +24 комфорт 1010.6 1010.1
18 21.04 СЗ 2 н/о н/о +28.9 +24 +24 комфорт 1009.8 1009.3
19 21.04 З 2 н/о н/о +28.8 +24 +24 комфорт 1009.9 1009.4

 

Местоположение метеостанции Остров Брауз (Западная Австралия, Австралия): широта -14.11 долгота 123.55 высота над уровнем моря 5 м.

В архиве по умолчанию представлена погода на Острове Брауз за последнюю неделю. Архивные данные за месяц целиком и за предыдущие месяцы, начиная с января 2011 года, Вы можете получить, выбрав интересующий диапазон дат из раскрывающегося списка и нажав кнопку "Ввод!".


*Определитесь, кто Вы:
робот инопланетянин человек

Внимание! Время в таблицах - всемирное. Для получения местного времени необходимо прибавить поправку, которая равна 8 ч.

Смотрите также архив погоды в соседних городах и на ближайших метеорологических станциях:

Погода на Острове Адель (Западная Австралия, Австралия) (162 км)
Погода на Острове Троутон (Западная Австралия, Австралия) (284 км)
Погода в Трускотте (Западная Австралия, Австралия) (305 км)
Погода в Калумбуру (Западная Австралия, Австралия) (335 км)
Погода в Дерби (Северная территория, Австралия) (362 км)
Погода на Роти (Индонезия) (380 км)
Погода на Базе ВВС Curtin (Западная Австралия, Австралия) (387 км)
Погода в Купанге (Индонезия) (440 км)
Погода в Робак Запад (Западная Австралия, Австралия) (442 км)
Погода в Сабу (Индонезия) (443 км)

Пояснения к столбцам:

Ветер - указаны скорость ветра в м/с - средняя за 10 мин, порывы в срок и между сроками (в фигурных скобках) и направление, откуда дует ветер: С - северный, СВ - северо-восточный, В - восточный, ЮВ - юго-восточный, Ю - южный, ЮЗ - юго-западный, З - западный, СЗ - северо-западный.
Видимость - горизонтальная дальность видимости в метрах или километрах. При видимости от 1 до 10 км при отсутствии осадков обычно наблюдается дымка, при ухудшении видимости до 1 км и менее - туман. В сухую погоду видимость может ухудшаться дымом, пылью или мглою.
Явления - указаны атмосферные явления, наблюдавшиеся в срок или в последний час перед сроком; фигурными скобками обозначены явления, наблюдавшиеся между сроками (за 1-3 часа до срока); квадратными скобками обозначены град или гололедные отложения с указанием их диаметра в мм.
Облачность - указаны через наклонную черту общая и нижняя облачность в баллах и высота нижней границы облаков в метрах; квадратными скобками обозначены формы облаков: Ci - перистые, Cs - перисто-слоистые, Cc - перисто-кучевые, Ac - высококучевые, As - высокослоистые, Sc - слоисто-кучевые, Ns - слоисто-дождевые, Cu - кучевые, Cb - кучево-дождевые. Подробнее классификацию облаков см. в Атласе облаков (PDF).
T - Температура воздуха - температура, измеренная на высоте 2 м над землей.
Td - Температура точки росы - температура, при понижении до которой содержащийся в воздухе водяной пар достигнет насыщения.
f - Относительная влажность воздуха - влажноcть воздуха, измеренная на высоте 2 м над землей.
Te - Эффективная температура - температура, которую ощущает одетый по сезону человек в тени. Характеристика душности погоды. При расчете учитывается влияние влажности воздуха и скорости ветра на теплоощущения человека.
Tes - Эффективная температура на солнце - температура, которую ощущает человек, с поправкой на солнечный нагрев. Характеристика знойности погоды. Зависит от высоты солнца над горизонтом, облачности и скорости ветра. Ночью, в пасмурную погоду, а также при ветре 12 м/с и более поправка равна нулю.
P - Атмосферное давление - приведенное к уровню моря атмосферное давление.
Po - Атмосферное давление - измеренное на уровне метеостанции атмосферное давление.
Tmin - Минимальная температура - минимум температуры воздуха на высоте 2 м над землей.
Tmax - Максимальная температура - максимум температуры воздуха на высоте 2 м над землей.
R - Количество осадков - Количество выпавших осадков за период времени, мм. При наведении курсора мыши на число - период времени, за который выпало указанное количество осадков.
R24 - Количество осадков - Количество выпавших осадков за 24 часа, мм.
S - Снежный покров - Высота снежного покрова, см. При наведении курсора мыши на число - состояние снежного покрова и степень покрытия местности в баллах.